1998-067VD

Last updated on Thu Apr 27 2023 00:02:04 GMT+0000 (Coordinated Universal Time)

1 56312U 98067VD 23115.52747286 .00038654 00000+0 65371-3 0 9990 2 56312 51.6423 229.5027 0007973 264.4535 160.4044 15.51165428 201
UTC large
Height (km)
Speed (km/s)
/
Latitude / Longitude
Inclination (degrees)
Orbital Period (minutes)
Azimuth
Elevation
Range (km)
Doppler Factor

Next 0 passes for location: London (51.5072 / 0.1276)

Sorry there are no passes over London.